Volver al catálogo

FLOCK 4Q 31

ActivoCienciaPO
NORAD 58285·PAYLOAD·🇺🇸 United States

Lanzado Nov 11, 2023 desde Vandenberg Space Force Base

Loading…

Próximos Pases (próximas 24 horas)

TLE

ActualizadoSource: Space-Track

Época: Sep 14, 2026, 00:05 UTC

1 58285U 23174AF  26257.00358691  .00342605  00000-0  14882-2 0  9994
2 58285  97.3824 353.8670 0006681 230.6304 129.4374 15.83925314159707

Sigue FLOCK 4Q 31 en tiempo real con AllMySat

Download on the App Store